Location: Maccacari
(45.1333°N, 11.1333°E)
Time: 10:14:20
(UTC+00:00)

Vanguard 2 - Pass Details

Date: 30 January 2021
Orbit: 552 x 2938 km, 32.9° (Epoch: 24 February)

Event Time Altitude Azimuth Distance (km) Brightness Sun altitude
Rises 14:12:32 0° 232° (SW) 3,228 12.3 17.2°
Reaches altitude 10° 14:16:10 10° 209° (SSW) 2,032 11.7 16.8°
Maximum altitude 14:18:38 15° 175° (S) 1,628 10.0 16.5°
Drops below altitude 10° 14:20:54 10° 140° (SE) 1,836 9.6 16.2°
Sets 14:23:53 0° 114° (ESE) 2,718 10.2 15.8°
